Weather in Zaqatala

Azerbaijan     41°37′45″N   46°38′52″E
temp.,
°C
wind,
m/s
gust,
m/s
humid.,
%
clouds,
%
prec.,
mm/h
press.,
hPa
HPBL,
m
5 august, thu
thu501:00+15ne446790 0.8 102048
04:00+15ne326294 0.9 101920
07:00+16ne32625 0.0 101924
10:00+20sw33445 0.1 10181272
13:00+20sw444384 0.8 10181785
16:00+21ssw443884 1.1 10162176
19:00+19s22473 0.0 101732
22:00+16nne334298 0.0 101817
6 august, fri
fri601:00+13nne22473 0.0 101815
04:00+14ne54443 0.0 101727
07:00+15ne44450 0.0 101729
10:00+20sw33350 0.0 10161449
13:00+21sw53320 0.0 10151853
16:00+22sw42300 0.0 10141937
19:00+20sw22480 0.0 101427
22:00+14nne22570 0.0 101516
7 august, sat
sat701:00+14nne33490 0.0 101516
04:00+14ne55444 0.0 101532
07:00+15nne33450 0.0 101420
10:00+21sw32310 0.0 1013992
13:00+22sw43323 0.0 10121235
16:00+23ssw43325 0.0 10111517
19:00+21wsw22470 0.0 101119
22:00+15nnw22503 0.0 101412
8 august, sun
sun801:00+14nne225884 0.0 101616
04:00+15ne324920 0.0 101413
07:00+17ne434913 0.0 101426
10:00+22sw32425 0.1 1014675
13:00+24sw44395 0.4 10131504
16:00+25sw45292 0.4 10132366
19:00+22sw22485 0.0 101418
22:00+16ne21555 0.0 101615
9 august, mon
mon901:00+18nne22463 0.0 101615
04:00+16ne54532 0.1 101729
07:00+17ne32617 0.7 101821
10:00+21sw33484 1.6 1017876
13:00+23sw55415 1.6 10171714
16:00+24sw233520 2.8 10151792
19:00+21sw3447100 0.3 1017177
22:00+19ene224832 0.4 101816